sat.trackr.live / text

‹ back to catalog

STARLINK-2363

NORAD 47903 · 2021-021AV

PAYLOAD ACTIVE UNKNOWN

§ Identity

Operator
Country
US
Launch date
2021-03-14
Launch site
AFETR
Launch vehicle
Mass (kg)
RCS (m²)

Purposes: comms

External: N2YO · Heavens-Above · Gunter

§ Orbital elements

Epoch: 2026-07-07T19:01:17.272128Z

Period
87.57 min
Inclination
53.1363°
Eccentricity
0.0012848
Mean motion
16.44421949 rev/d
Perigee alt
145.7 km
Apogee alt
162.5 km
Semi-major
6,532.2 km
B*
3.0410e-4
RAAN
9.9168°
Arg perigee
289.4646°
Mean anomaly
70.5015°
Rev number
29,581

§ Raw data

STARLINK-23631 47903U 21021AV  26188.79256102  .11153450  12548-4  30410-3 0  99912 47903  53.1363   9.9168 0012848 289.4646  70.5015 16.44421949295818

JSON: /api/v1/satellites/47903 · /tle

For live sub-satellite position, see the globe view (requires WebGL).

§ Visibility from observer

Set your observer location to see the next 7 days of passes ≥ 10°. The values pass through the URL so the page stays shareable.

No JS? Fill the form by hand. The geolocation button needs JavaScript.